Weather History for Point Mugu, CA

Change the Weather History Date:

Wednesday, April 9, 2014

  Actual Average Record
Temperature  
Mean Temperature 62 °F -  
Max Temperature 71 °F 60 °F 71 °F (2014)
Min Temperature 53 °F 44 °F 35 °F (1999)
Degree Days  
Heating Degree Days 4    
Growing Degree Days 12 (Base 50)    
Moisture  
Dew Point 53 °F    
Average Humidity 82    
Maximum Humidity 94    
Minimum Humidity 57    
Precipitation  
Precipitation 0.00 in - - ()
Sea Level Pressure  
Sea Level Pressure 30.01 in    
Wind  
Wind Speed 6 mph (NW)    
Max Wind Speed 12 mph    
Max Gust Speed -    
Visibility 4 miles    
Events Fog    
Averages and records for this station are not official NWS values.
T = Trace of Precipitation, MM = Missing Value Source: NWS Daily Summary

Daily Weather History Graph

Daily Weather History Graph

Search for Another Location

Airport:

Trip Planner

Search our weather history database for the weather conditions in past years. The results will help you decide how hot, cold, wet, or windy it might be!

Date:

Astronomy

Apr. 09, 2014 Rise Set
Actual Time 6:33 AM PDT 7:23 PM PDT
Civil Twilight 6:07 AM PDT 7:49 PM PDT
Nautical Twilight 5:37 AM PDT 8:19 PM PDT
Astronomical Twilight 5:06 AM PDT 8:50 PM PDT
Moon 2:29 PM PDT (4/9) 3:11 AM PDT (4/9)
Length of Visible Light 13h 41m
Length of Day
12h 50m
Waxing Gibbous, 72% of the Moon is Illuminated
Apr 9
Waxing Gibbous
Apr 15
Full
Apr 22
Last Quarter
Apr 28
New
May 6
First Quarter

Hourly Weather History & Observations

Time (PDT) Temp. Dew Point Humidity Pressure Visibility Wind Dir Wind Speed Gust Speed Precip Events Conditions
12:01 AM 55.9 °F 54.0 °F 93% 30.06 in - NW 6.9 mph - N/A   Overcast
12:54 AM 57.0 °F 54.0 °F 89% 30.05 in - North 5.8 mph - N/A   Overcast
1:54 AM 55.9 °F 53.1 °F 90% 30.04 in - NNW 8.1 mph - N/A   Overcast
2:24 AM 55.0 °F 52.0 °F 89% 30.02 in - NNW 5.8 mph - N/A   Scattered Clouds
2:54 AM 55.0 °F 52.0 °F 89% 30.01 in - NW 4.6 mph - N/A   Clear
3:22 AM 55.0 °F 52.0 °F 89% 30.01 in - NW 5.8 mph - N/A   Partly Cloudy
3:54 AM 55.0 °F 52.0 °F 89% 30.01 in - NW 6.9 mph - N/A   Scattered Clouds
4:04 AM 55.0 °F 52.0 °F 89% 30.00 in - NNW 6.9 mph - N/A   Mostly Cloudy
4:54 AM 55.0 °F 52.0 °F 89% 30.01 in - NW 4.6 mph - N/A   Overcast
5:54 AM 54.0 °F 52.0 °F 93% 30.02 in 3.0 mi North 3.5 mph - N/A   Overcast
6:26 AM 54.0 °F 51.1 °F 90% 30.02 in 1.5 mi North 3.5 mph - N/A   Overcast
6:54 AM 53.1 °F 50.0 °F 89% 30.02 in 2.0 mi North 3.5 mph - N/A   Mostly Cloudy
7:10 AM 53.1 °F 50.0 °F 89% 30.02 in 0.5 mi North 3.5 mph - N/A Fog Fog
7:23 AM 53.1 °F 50.0 °F 89% 30.03 in 0.1 mi North 4.6 mph - N/A Fog Fog
7:48 AM 53.6 °F 51.8 °F 94% 30.03 in 0.5 mi NW 6.9 mph - N/A Fog Fog
7:54 AM 54.0 °F 51.1 °F 90% 30.04 in 0.5 mi NW 3.5 mph - N/A Fog Fog
8:09 AM 55.9 °F 52.0 °F 87% 30.03 in 1.5 mi NW 5.8 mph - N/A   Mostly Cloudy
8:18 AM 55.9 °F 53.1 °F 90% 30.03 in 3.0 mi NNW 5.8 mph - N/A   Mostly Cloudy
8:54 AM 61.0 °F 52.0 °F 72% 30.04 in 7.0 mi NW 8.1 mph - N/A   Mostly Cloudy
9:54 AM 66.0 °F 53.1 °F 63% 30.03 in 7.0 mi NW 4.6 mph - N/A   Mostly Cloudy
10:54 AM 70.0 °F 55.0 °F 59% 30.04 in 7.0 mi WNW 6.9 mph - N/A   Mostly Cloudy
11:54 AM 70.0 °F 54.0 °F 57% 30.03 in 7.0 mi West 9.2 mph - N/A   Mostly Cloudy
12:54 PM 68.0 °F 53.1 °F 59% 30.01 in 7.0 mi West 11.5 mph - N/A   Mostly Cloudy
1:54 PM 66.0 °F 54.0 °F 65% 30.01 in 7.0 mi West 11.5 mph - N/A   Mostly Cloudy
2:54 PM 64.0 °F 55.0 °F 73% 30.01 in 7.0 mi West 10.4 mph - N/A   Mostly Cloudy
3:54 PM 66.0 °F 54.0 °F 65% 29.99 in 7.0 mi West 4.6 mph - N/A   Scattered Clouds
4:54 PM 66.0 °F 54.0 °F 65% 29.98 in 7.0 mi West 10.4 mph - N/A   Scattered Clouds
5:54 PM 64.9 °F 53.1 °F 65% 29.98 in 7.0 mi WNW 5.8 mph - N/A   Scattered Clouds
6:34 PM 57.9 °F 53.1 °F 84% 29.97 in 1.5 mi WNW 9.2 mph - N/A   Haze
6:54 PM 57.0 °F 52.0 °F 83% 29.97 in 1.5 mi NW 9.2 mph - N/A   Haze
7:04 PM 57.0 °F 52.0 °F 83% 29.96 in 1.5 mi NW 9.2 mph - N/A   Haze
7:54 PM 57.0 °F 53.1 °F 87% 29.97 in 1.5 mi NNW 8.1 mph - N/A   Haze
8:54 PM 57.0 °F 53.1 °F 87% 29.98 in 2.0 mi NNW 9.2 mph - N/A   Mostly Cloudy
9:54 PM 57.9 °F 54.0 °F 87% 29.99 in 2.0 mi North 5.8 mph - N/A   Overcast
10:54 PM 55.9 °F 53.1 °F 90% 29.99 in 2.0 mi NNW 5.8 mph - N/A   Scattered Clouds
11:01 PM 55.9 °F 52.0 °F 87% 29.98 in - North 3.5 mph - N/A   Scattered Clouds
11:54 PM 55.9 °F 53.1 °F 90% 30.01 in - NW 4.6 mph - N/A   Mostly Cloudy